Dewpoint
60 57 56 49 50 46 31 34 23 25 26 21 21 21 19 20 22 18 14 14 9 19 45 56 56 54 52 57 58 60 61 57 58 49 49 60 66 67 69 70 71 71 72 73 73 73 73 74 74 74 74 74 74 74 73 73 73 73 73 73 73 73 73 73 73 73 72 72 72 72 72 72 71 71 71 71 71 71 71 73 73 72 72 71 70 70 69 69 68 67 67 68 68 69 69 70 70
56 50 48 49 45 33 31 30 22 22 20 16 14 18 18 20 21 15 14 12 10 41 52 57 58 59 59 60 60 60 62 62 62 62 64 65 66 67 69 70 71 71 72 73 73 73 73 74 74 74 74 74 74 73 73 73 73 73 74 74 73 73 73 73 73 72 72 72 72 72 72 72 71 71 71 71 72 72 72 72 71 70 69 69 69 69 70 69 69 68 68 68 68 69 69 69 69
50 50 47 44 41 36 37 27 22 22 18 11 9 13 15 11 13 16 17 16 16 39 46 56 57 57 57 58 57 57 59 63 63 63 64 65 64 66 69 70 71 72 72 73 73 73 73 73 74 74 74 74 74 73 73 73 73 73 73 73 73 73 72 72 72 72 72 72 72 72 72 71 71 71 71 71 72 72 72 71 70 70 69 69 68 68 69 69 69 68 67 67 68 69 69 69 69
52 50 46 46 35 35 36 31 22 19 17 15 16 16 15 14 13 13 13 15 31 42 46 57 57 60 57 57 58 61 62 62 63 63 63 64 64 67 70 71 72 71 72 72 73 73 73 73 74 74 74 74 74 73 73 73 73 73 73 73 73 73 72 72 72 72 72 72 72 71 71 71 71 71 71 71 71 71 71 71 70 69 69 68 68 68 68 68 68 68 68 68 68 69 69 69 69
51 54 47 46 32 34 35 34 27 19 16 17 15 17 23 17 16 15 15 17 31 36 56 57 58 60 59 58 59 57 61 64 64 65 64 66 68 69 69 70 70 70 71 72 73 73 73 74 74 73 73 73 73 73 73 73 73 73 73 73 73 72 72 72 72 71 71 71 71 71 71 71 71 71 70 70 71 71 72 71 71 71 70 71 71 71 69 68 68 68 68 68 69 69 69 69 69
46 43 48 47 38 28 23 23 26 24 18 20 18 18 18 19 22 22 11 9 19 44 54 55 56 58 58 61 61 60 64 62 64 65 65 66 68 69 69 69 69 70 71 72 72 72 73 74 73 73 73 73 73 73 73 73 73 73 73 73 72 72 72 72 71 71 71 71 71 71 71 71 71 70 70 71 71 71 71 71 71 71 69 68 68 68 68 68 68 68 68 69 69 69 68 68 69
39 38 39 41 35 28 24 26 22 23 24 25 23 23 26 27 26 25 22 17 36 57 59 58 59 58 57 59 62 64 65 65 64 65 66 67 67 68 68 68 69 70 71 72 72 73 73 73 73 73 73 73 73 73 73 73 73 73 73 73 72 72 72 71 72 71 71 71 71 71 71 71 71 71 71 71 71 71 71 70 69 69 70 70 68 69 69 69 69 67 68 69 69 68 69 69 69
47 33 33 30 26 24 23 22 21 23 25 26 26 25 24 23 21 20 19 16 11 51 57 58 57 59 59 62 61 65 66 65 65 66 66 66 67 67 68 68 69 70 71 72 72 73 74 73 73 73 73 73 73 73 73 73 72 72 72 72 72 72 72 71 71 72 72 71 71 71 71 71 71 72 71 71 71 70 70 70 69 69 68 69 71 71 70 69 69 68 69 69 69 68 68 69 69
35 32 35 22 23 24 19 20 21 22 23 24 24 28 41 30 26 19 8 6 15 49 54 56 56 57 59 63 63 65 65 65 65 66 65 65 66 67 68 69 69 70 71 71 72 72 73 73 73 73 73 73 73 73 73 73 72 72 72 72 72 72 72 71 72 72 72 72 71 71 71 71 72 72 71 71 70 70 70 69 69 69 68 70 71 70 70 69 69 69 68 68 69 68 68 68 68
31 29 26 25 19 17 13 12 13 14 18 20 21 21 21 20 15 11 6 7 19 45 51 57 59 59 62 62 63 64 64 66 65 65 65 65 67 68 68 69 70 70 71 71 72 72 72 73 73 73 73 73 73 73 73 72 72 72 72 72 72 72 72 72 72 72 71 71 71 71 71 72 72 72 71 71 70 70 69 69 69 69 70 70 70 70 70 70 70 69 68 68 68 68 68 68 69
30 28 30 25 24 18 16 12 11 11 10 10 10 12 15 16 15 7 8 9 39 54 58 60 59 60 61 61 63 66 66 66 65 65 66 67 68 67 68 69 70 70 70 71 72 72 72 73 73 73 73 73 73 72 72 72 72 72 72 72 72 72 72 72 72 71 71 71 71 71 71 72 72 72 71 71 70 70 69 69 69 69 70 70 70 70 70 70 69 69 69 68 68 68 68 68 68
27 27 24 23 22 19 17 15 14 13 14 14 13 11 11 12 9 6 5 1 43 55 55 58 58 61 60 62 64 68 66 65 65 66 67 68 67 68 68 69 70 70 71 71 71 72 72 72 72 73 73 73 72 72 72 72 72 72 72 72 72 72 72 72 72 71 71 71 71 71 71 71 71 71 71 71 70 70 70 70 70 70 70 70 70 70 70 70 69 69 69 68 68 68 68 68 68
28 28 20 19 21 21 20 18 17 25 22 15 12 6 7 8 5 7 5 8 8 38 44 56 61 60 59 61 65 66 65 66 66 67 68 67 68 68 69 69 70 70 71 71 71 71 71 71 72 72 72 72 72 72 72 72 72 72 72 72 72 72 71 71 71 71 71 71 71 71 71 71 71 71 71 70 70 70 70 70 70 70 70 69 69 69 69 69 69 69 68 68 68 68 68 68 68
24 22 18 18 21 15 13 13 13 8 7 7 4 8 13 10 10 10 15 41 49 55 57 60 60 61 61 62 64 64 65 66 67 67 68 69 68 68 68 69 70 70 70 70 70 71 71 71 71 71 71 71 71 71 71 71 71 71 71 71 71 71 71 71 71 71 71 71 71 71 71 71 71 71 70 70 70 70 70 70 70 70 69 69 69 69 68 68 69 69 68 68 68 68 67 67 67
23 20 19 23 14 15 13 11 11 8 9 10 8 8 11 16 15 23 52 53 52 58 59 61 61 58 59 60 61 64 65 66 67 68 68 68 67 68 68 69 69 69 70 70 70 70 71 71 71 71 71 71 71 70 70 70 72 72 72 71 71 71 71 71 71 71 71 71 71 71 71 71 71 71 70 70 70 70 70 70 70 69 69 69 68 68 68 69 69 68 68 68 68 67 67 67 67
23 17 20 22 16 14 14 13 15 11 10 7 6 10 10 8 17 20 39 49 47 50 52 50 57 57 61 60 63 65 66 66 68 68 67 67 67 67 67 67 68 68 69 69 69 70 71 71 70 70 71 71 71 71 70 71 72 72 72 71 71 71 71 71 71 71 71 71 71 71 71 71 71 70 70 70 70 70 70 69 69 69 69 68 68 68 68 68 68 68 68 68 67 67 66 67 67
19 21 15 15 12 12 13 14 12 10 10 9 8 11 10 14 23 45 48 49 49 51 57 58 61 62 61 63 65 66 66 67 68 67 66 66 66 65 66 66 67 67 68 68 69 70 70 70 70 70 70 70 70 70 70 70 71 72 71 71 71 71 71 71 70 71 71 71 70 71 70 70 69 70 70 69 70 70 70 69 69 69 69 68 68 68 68 68 68 68 67 67 67 67 67 67 67
21 18 13 15 12 10 12 12 11 10 9 9 8 10 14 20 29 46 51 52 55 60 62 64 65 65 65 66 66 66 67 67 67 66 66 65 65 64 64 65 66 66 67 68 69 69 69 69 69 70 70 70 70 70 70 70 70 70 70 70 70 70 70 71 70 69 71 69 70 69 67 70 68 68 69 70 70 70 69 69 69 69 68 68 68 68 68 67 67 67 67 67 67 66 66 63 65
19 17 14 8 11 10 11 11 10 9 8 9 8 7 14 16 26 29 48 52 57 60 62 63 63 65 66 66 66 67 67 67 66 66 66 65 64 64 64 64 65 66 66 67 68 69 69 69 69 69 69 69 69 69 69 68 68 68 69 69 69 70 70 70 68 68 66 66 66 67 67 66 66 68 68 69 70 69 69 69 69 69 68 68 68 67 67 67 66 66 66 66 65 66 63 62 62
15 14 11 10 10 10 13 11 9 11 10 8 8 6 9 7 18 33 48 52 59 60 60 62 62 62 64 65 66 66 67 66 66 66 65 65 64 64 64 64 65 65 66 67 67 68 68 68 69 69 68 68 68 68 68 67 67 67 68 68 68 68 68 68 67 66 65 65 65 65 65 66 66 67 70 70 70 69 68 69 69 68 68 67 67 69 68 67 67 67 66 66 67 65 61 61 62
13 12 9 9 10 10 10 11 11 10 10 9 7 10 7 7 8 29 48 52 56 60 62 62 62 63 64 65 65 65 65 65 66 65 65 65 65 65 64 64 64 65 66 67 67 67 68 68 68 68 68 68 68 68 67 67 67 66 66 66 66 67 66 66 65 65 65 65 66 66 66 66 66 67 68 68 68 68 67 67 68 67 67 67 68 65 64 64 65 64 63 64 62 62 62 61 60
12 9 10 9 9 9 10 11 11 11 11 10 7 7 9 8 9 12 42 49 53 58 62 63 63 63 63 64 64 65 65 65 65 65 65 65 65 65 65 65 65 66 66 66 66 67 67 68 67 67 67 67 68 67 67 67 66 66 65 65 66 66 66 65 65 65 65 66 66 67 66 65 66 66 66 66 67 66 66 66 66 66 66 65 66 64 64 64 63 64 64 64 64 62 61 61 60
15 14 10 9 10 10 11 11 12 11 10 8 7 8 12 6 8 17 14 48 53 58 62 63 63 63 63 63 63 63 64 64 64 65 65 65 65 66 65 64 64 65 66 65 66 67 67 67 67 67 66 67 67 67 67 67 66 65 65 65 65 65 65 65 65 65 65 65 66 67 66 65 65 65 65 65 65 65 65 65 65 64 64 64 65 64 63 64 64 63 63 64 62 62 61 61 61
14 14 10 8 7 8 10 11 12 11 10 8 8 12 9 8 4 20 48 50 55 61 63 63 63 63 63 62 62 63 63 63 63 64 65 65 65 64 64 63 64 65 65 65 65 67 67 67 67 67 66 67 67 67 66 66 66 65 65 67 64 66 66 65 65 64 65 66 66 66 67 66 65 65 64 64 64 64 65 65 65 64 63 63 64 64 62 63 63 63 64 63 63 62 61 61 61
17 14 13 12 10 7 7 10 11 11 9 8 9 8 7 6 8 44 49 53 60 62 63 63 63 63 63 62 62 62 63 63 63 63 64 64 63 63 64 64 64 64 65 65 65 66 67 67 68 66 66 67 67 66 65 66 66 65 66 65 64 68 64 64 65 65 65 66 66 66 67 65 65 65 64 64 64 64 64 64 64 64 63 64 64 63 63 63 62 63 63 64 63 62 62 61 60
16 15 13 10 8 7 5 7 10 10 9 9 8 7 8 6 11 45 50 53 60 62 62 63 63 63 63 63 62 62 62 62 63 63 64 63 62 62 63 64 64 64 65 64 64 66 67 68 67 66 66 66 66 66 65 65 65 65 64 64 65 67 64 65 65 65 65 65 65 66 66 65 64 64 64 63 64 64 64 64 64 63 63 63 64 64 63 63 62 62 62 63 63 62 61 61 60
11 9 7 5 4 4 6 6 7 8 11 8 6 5 3 4 6 5 40 51 61 61 62 62 62 62 63 63 63 63 62 63 63 63 64 62 62 62 62 64 64 64 64 64 65 66 67 67 67 66 67 67 66 66 65 65 65 64 64 64 65 65 64 66 65 65 65 65 65 66 66 66 65 64 64 63 64 64 64 64 63 63 63 63 63 63 64 65 63 63 63 63 62 62 61 61 60
10 8 6 4 4 4 3 4 7 8 7 7 6 7 5 5 4 4 42 47 61 61 61 61 61 62 62 63 63 63 63 63 63 64 62 62 61 62 62 63 64 64 64 64 65 66 67 67 66 66 67 67 66 66 65 65 64 64 64 65 65 64 65 65 65 65 67 65 65 65 65 65 66 64 64 64 64 64 64 64 64 64 64 64 64 64 64 64 64 64 65 64 63 62 62 61 61
10 9 5 4 4 4 7 3 3 9 7 10 8 8 8 6 2 3 40 47 60 61 61 61 60 61 62 63 63 63 63 63 63 63 62 62 62 62 62 63 64 64 64 64 65 66 66 66 66 66 67 66 65 65 65 65 65 65 64 64 65 65 65 65 65 65 65 65 65 65 65 65 65 65 64 65 66 64 64 63 63 64 65 65 64 64 65 64 65 64 64 63 63 62 62 61 61
11 10 7 4 4 4 6 9 7 7 9 9 8 7 9 7 5 3 37 48 57 59 60 60 60 61 62 62 62 62 63 63 63 63 63 62 62 62 62 64 64 64 64 64 65 66 67 66 66 66 66 65 65 65 65 65 65 65 65 65 66 65 65 65 65 65 65 65 65 65 65 65 65 64 64 64 64 63 62 62 62 63 64 65 64 64 64 63 64 64 63 63 64 62 61 60 61
10 10 8 9 7 6 8 11 11 8 10 10 7 9 8 7 5 4 28 47 54 57 58 59 59 60 61 61 62 62 63 63 63 63 63 62 62 62 63 64 64 64 64 64 65 66 66 66 66 66 66 65 66 65 65 64 65 65 65 65 65 65 65 65 64 64 65 65 65 64 65 65 65 65 64 64 62 62 62 62 62 63 65 64 64 64 64 63 64 64 63 62 62 62 61 61 61
11 9 10 11 6 7 6 9 11 6 7 11 6 12 7 7 5 4 5 42 51 54 57 58 58 59 60 60 61 62 62 63 63 64 63 62 62 62 63 63 63 63 64 64 65 66 66 66 66 66 66 65 65 65 64 64 64 64 64 66 65 65 65 65 64 65 65 64 64 64 64 64 65 65 64 63 62 62 62 62 63 64 65 64 64 63 63 63 63 63 62 62 61 61 61 60 60
18 10 20 13 15 8 5 5 8 7 7 8 5 6 7 4 3 4 3 23 46 50 55 57 58 58 59 60 61 61 62 63 63 64 63 62 62 63 64 63 63 63 63 64 65 66 66 66 66 65 65 65 65 65 64 64 64 64 64 66 65 65 65 65 65 65 65 65 64 65 64 65 64 64 64 63 62 62 62 62 62 64 64 64 63 62 62 63 63 62 62 62 61 61 61 61 60
12 20 14 20 12 13 7 7 6 7 6 4 4 3 9 11 10 2 2 9 45 47 54 56 57 58 58 59 61 62 62 63 63 63 63 62 62 63 63 64 63 63 64 64 65 66 66 65 64 64 64 65 65 65 64 64 65 65 65 65 66 65 65 65 65 65 65 65 65 65 65 65 64 64 64 63 62 63 63 62 63 64 64 63 62 62 62 61 62 63 62 62 62 61 61 60 61
13 15 15 14 15 13 8 6 5 7 6 6 7 6 5 3 4 5 1 5 43 46 52 56 56 57 58 59 61 62 62 62 63 63 63 63 63 63 63 63 63 62 64 65 66 66 65 65 64 64 64 65 65 65 65 65 64 64 63 64 64 64 64 64 65 65 65 65 65 65 65 65 65 64 64 64 63 63 63 62 63 63 63 63 62 62 62 63 62 61 61 61 62 61 61 60 61
13 14 17 19 16 13 9 7 7 6 6 2 3 6 4 4 5 6 8 9 40 43 51 54 56 57 58 59 61 62 62 62 63 63 63 63 63 62 62 63 62 62 63 65 66 66 65 65 65 64 64 65 64 64 64 64 63 63 63 62 62 62 62 64 64 65 64 64 64 65 65 64 65 64 64 63 63 63 62 62 63 63 63 63 62 62 61 62 62 60 60 61 61 61 61 61 61
10 11 12 10 11 11 10 8 7 8 8 6 4 7 5 5 6 8 9 13 20 39 47 51 55 56 58 59 61 61 61 61 63 63 63 62 61 62 62 62 62 62 63 65 65 66 66 65 65 64 64 64 64 63 63 63 62 61 60 62 62 62 62 62 64 63 63 63 64 65 65 64 64 65 64 63 63 64 62 62 62 62 62 63 62 61 60 61 60 60 60 60 59 59 60 60 60
13 12 13 13 15 14 13 12 13 13 17 10 8 5 5 6 8 9 10 16 15 35 47 50 54 56 57 59 60 60 60 62 59 59 60 61 61 61 60 61 62 62 62 63 64 65 66 65 64 64 64 63 63 63 62 62 61 61 61 61 60 61 61 61 61 61 62 63 63 63 64 64 64 64 64 63 64 63 62 62 62 62 62 62 61 61 60 62 60 61 61 60 59 58 58 60 60
21 15 13 13 12 13 14 14 18 17 23 15 12 7 5 6 8 9 11 13 15 34 48 49 52 54 56 58 59 59 60 57 58 59 59 60 60 60 60 61 61 61 62 62 63 64 65 65 64 63 63 63 62 62 62 61 61 61 61 60 60 59 60 61 60 61 63 62 62 63 63 63 64 64 64 64 63 63 63 62 62 61 61 62 61 60 60 60 60 62 60 60 59 59 59 60 59
23 19 18 15 15 14 12 21 22 21 25 22 18 11 10 9 9 10 11 12 19 32 47 50 52 53 55 57 59 59 57 57 57 58 58 59 59 60 60 60 60 60 61 61 62 64 64 64 63 63 63 63 62 62 62 62 62 61 61 60 59 58 57 59 59 60 61 61 61 62 62 63 63 64 64 64 63 63 62 62 62 62 62 62 61 61 60 59 60 60 60 59 59 59 57 59 60
25 25 18 15 14 14 13 18 25 28 21 30 20 19 12 15 10 10 11 21 31 39 46 50 52 53 55 58 59 59 56 57 57 58 58 58 59 59 59 59 60 60 61 62 63 64 64 63 63 63 63 63 63 63 63 61 61 59 59 58 58 57 57 58 58 58 58 60 59 59 61 62 63 63 62 63 64 63 62 62 61 61 62 61 61 61 61 61 60 60 60 60 59 58 57 58 59
21 27 23 19 16 15 19 26 21 19 16 25 9 6 9 24 24 9 8 18 26 44 48 49 51 53 56 57 57 57 57 57 57 57 58 58 58 58 59 59 59 60 61 62 63 64 64 64 64 64 63 63 63 63 62 61 60 59 58 55 54 54 55 56 56 57 58 58 57 58 60 60 62 62 62 62 62 62 62 62 61 62 61 61 62 61 61 61 60 60 61 61 59 57 58 57 57
21 23 28 22 18 21 25 21 22 18 12 19 26 12 10 24 16 16 20 15 18 41 48 49 50 52 55 56 56 56 56 56 57 57 58 58 58 58 58 59 59 60 61 62 63 64 64 64 64 64 63 63 63 61 60 60 58 58 56 54 54 54 54 55 56 58 58 58 58 57 57 58 61 62 61 61 61 61 60 61 61 61 62 61 62 61 61 61 62 62 62 60 59 59 57 56 57
19 28 26 23 19 19 23 24 20 17 28 25 28 18 13 11 18 29 23 19 24 33 44 48 50 52 55 55 56 56 55 56 57 57 57 58 58 58 58 59 59 60 61 62 62 64 64 64 64 64 63 63 62 61 60 59 58 58 55 54 54 54 54 54 56 57 58 58 57 57 56 57 59 60 60 60 61 60 60 60 60 60 61 62 62 61 60 60 62 62 62 61 60 59 58 57 57
21 27 23 19 18 23 21 18 19 21 19 11 15 25 13 16 23 27 21 17 19 34 46 48 51 53 55 55 55 55 55 56 57 57 57 57 57 58 58 59 60 60 61 61 62 63 64 64 64 63 63 62 61 60 59 60 60 59 57 57 57 56 54 55 56 57 57 57 56 56 56 56 57 57 58 58 58 59 61 60 60 60 60 61 62 61 60 61 60 61 61 60 60 58 58 57 58
22 24 22 20 20 19 20 16 14 22 12 12 15 26 12 16 27 24 27 19 22 28 47 50 51 54 54 54 55 55 55 56 57 56 57 57 58 58 59 59 60 60 61 62 63 64 64 64 63 63 62 61 61 60 60 60 60 59 58 58 58 56 54 54 55 56 56 56 56 55 55 55 55 56 56 57 58 59 58 58 58 58 59 60 61 60 60 60 60 60 61 61 60 59 58 58 58
28 19 16 15 15 17 19 19 18 19 12 14 21 29 16 12 24 22 25 28 29 41 49 50 53 54 55 55 55 55 55 56 56 57 57 57 58 58 59 59 59 60 61 62 63 63 63 63 63 62 61 61 61 60 60 59 59 59 58 59 57 53 53 53 53 53 55 55 55 54 54 55 56 56 56 56 57 58 58 59 57 58 59 60 60 60 60 60 60 60 61 61 60 59 58 58 57
14 19 15 15 16 22 15 19 20 11 12 21 25 26 19 13 22 29 35 35 33 45 49 50 53 53 54 54 55 55 56 56 56 56 57 57 57 58 59 59 59 60 60 61 62 63 63 62 62 61 60 60 60 60 59 59 59 58 59 58 55 53 52 52 51 53 54 55 54 54 54 55 54 54 54 55 56 56 57 56 56 56 57 57 58 58 58 59 59 60 60 60 60 59 59 59 58
11 14 16 11 14 18 11 14 7 7 11 18 25 20 19 17 23 32 36 38 40 44 50 51 53 53 54 54 54 55 56 56 56 57 57 57 56 57 58 59 59 59 60 61 62 62 62 61 61 60 59 59 60 59 59 58 58 58 59 58 56 54 53 51 51 53 54 54 54 55 54 54 54 53 53 53 54 55 56 55 54 53 54 56 57 58 58 58 58 59 59 59 59 59 59 58 58
10 10 16 10 6 8 5 14 12 12 15 21 24 24 19 27 33 36 38 41 46 48 49 51 53 54 54 54 54 55 56 56 57 57 57 56 56 57 57 59 59 60 61 61 62 61 61 60 59 59 59 59 59 58 58 58 57 58 58 58 58 55 53 52 52 54 54 54 56 55 54 55 54 53 52 52 54 56 56 56 55 54 54 55 56 56 57 57 58 59 58 58 58 57 57 57 57
9 11 10 14 17 14 6 12 5 7 8 19 22 17 14 26 33 38 42 45 47 49 50 52 54 54 54 54 55 55 55 55 56 57 57 56 57 56 57 58 59 60 61 61 61 61 60 59 59 59 59 59 59 58 57 57 57 57 58 58 58 55 54 53 53 55 55 55 56 55 55 56 55 53 54 54 55 56 55 53 52 52 53 54 55 56 56 56 56 58 57 57 57 57 57 57 57
18 16 15 14 15 22 9 18 19 20 14 11 19 15 27 32 38 41 43 46 48 51 52 53 53 54 54 55 55 55 55 55 55 56 56 57 57 57 58 58 59 59 60 60 60 60 60 59 59 59 59 59 58 58 57 57 57 57 57 57 57 56 56 55 55 55 55 56 55 55 56 56 55 55 55 56 55 54 54 53 54 54 54 54 54 54 54 55 55 56 55 56 56 58 56 56 56
23 11 13 13 21 20 20 21 25 19 21 11 20 28 31 34 35 39 43 46 47 49 51 52 52 53 54 54 54 55 55 55 56 56 56 56 57 57 58 58 59 59 60 60 60 59 59 59 59 59 59 59 58 57 57 57 57 57 57 57 57 56 55 54 54 55 55 55 56 56 56 55 54 55 55 55 54 54 54 53 53 52 53 53 53 53 53 53 53 53 53 53 52 51 52 51 51
20 14 13 17 27 27 20 16 19 15 11 17 25 24 27 26 26 39 42 46 48 50 50 50 51 52 53 53 55 55 55 56 57 56 56 57 57 57 58 58 59 59 59 60 59 58 58 59 59 59 59 58 58 58 58 58 58 57 57 57 56 55 55 55 55 55 55 56 55 54 54 54 54 55 55 55 53 53 54 55 52 51 52 52 52 52 52 51 50 50 50 51 51 51 51 51 51
10 14 18 15 15 10 25 21 11 10 9 11 24 30 30 33 31 38 40 44 48 49 50 50 50 52 53 55 55 56 56 56 56 56 57 57 57 57 57 58 59 58 59 59 59 59 58 58 59 59 59 59 58 58 58 58 58 59 58 57 57 55 55 55 55 55 55 54 53 53 53 54 55 55 54 52 51 51 51 51 51 50 50 51 51 51 50 50 49 50 50 50 50 51 50 50 50
14 16 26 29 29 26 18 17 20 21 16 13 19 27 20 36 34 40 42 43 47 50 50 51 52 52 53 54 54 55 55 56 56 56 57 57 57 57 57 58 58 58 58 59 58 58 58 58 58 59 59 59 59 59 59 59 59 59 58 57 57 56 55 54 54 54 54 53 53 53 53 53 54 53 51 51 50 50 50 49 49 49 49 49 49 48 48 48 49 49 49 49 49 50 50 50 49
20 13 20 23 29 36 24 28 17 20 22 18 19 17 26 34 39 44 45 46 47 49 50 51 52 53 54 54 54 54 55 55 55 56 56 57 57 56 57 57 58 58 58 58 58 58 58 58 58 59 59 60 60 60 59 59 59 58 57 57 56 55 54 53 53 53 53 53 53 53 53 53 53 51 51 50 50 49 49 49 48 49 48 48 47 46 47 48 48 48 48 49 48 50 49 49 49
26 19 21 23 25 21 15 17 27 26 25 24 21 17 28 37 45 47 46 46 48 48 49 50 51 51 52 53 54 54 54 55 55 56 56 56 55 56 56 57 57 57 57 57 57 58 57 57 58 59 60 60 60 60 59 58 58 58 57 57 56 54 54 53 53 53 53 53 53 52 53 53 51 51 50 50 49 49 49 48 47 48 48 48 47 47 48 48 48 47 47 49 48 49 49 48 48